QFA2704 YPPH-WADD

Flight info

Callsign QFA2704
Flight time N/A
Altitude 35000
Route PH Y15 ESDEG Q587 METUM R592 BLI
Aircraft A320/M-SDE3FGHIRWY/LB1

Departure

Time 2026-04-27 04:51
Airport Perth International Airport (YPPH)

Arrival

Time N/A
Airport Denpasar I Gusti Ngurah Rai International Airport (WADD)
Time Latitude Longitude Altitude Speed Heading
2026-04-27 04:36 -31.92563 115.96108 46 ft 0 kts 15°
2026-04-27 04:41 -31.92566 115.96107 46 ft 2 kts 15°
2026-04-27 04:42 -31.92581 115.96101 44 ft 2 kts
2026-04-27 04:42 -31.92597 115.96099 46 ft 2 kts 49°
2026-04-27 04:42 -31.92604 115.96085 47 ft 0 kts 109°
2026-04-27 04:44 -31.92609 115.96104 43 ft 2 kts 105°
2026-04-27 04:45 -31.92610 115.96121 46 ft 4 kts 97°
2026-04-27 04:45 -31.92632 115.96148 49 ft 6 kts 165°
2026-04-27 04:45 -31.92689 115.96135 49 ft 9 kts 193°
2026-04-27 04:45 -31.92734 115.96161 50 ft 8 kts 111°
2026-04-27 04:46 -31.92736 115.96165 50 ft 0 kts 110°
2026-04-27 04:46 -31.92745 115.96203 51 ft 6 kts 104°
2026-04-27 04:47 -31.92752 115.96234 50 ft 3 kts 104°
2026-04-27 04:47 -31.92762 115.96281 54 ft 10 kts 103°
2026-04-27 04:47 -31.92780 115.96373 54 ft 8 kts 103°
2026-04-27 04:47 -31.92791 115.96423 57 ft 6 kts 104°
2026-04-27 04:48 -31.92801 115.96466 53 ft 5 kts 104°
2026-04-27 04:48 -31.92807 115.96496 51 ft 3 kts 104°
2026-04-27 04:48 -31.92812 115.96517 51 ft 2 kts 104°
2026-04-27 04:48 -31.92818 115.96548 57 ft 8 kts 104°
2026-04-27 04:49 -31.92835 115.96635 54 ft 11 kts 103°
2026-04-27 04:49 -31.92851 115.96709 53 ft 8 kts 104°
2026-04-27 04:49 -31.92863 115.96764 60 ft 8 kts 104°
2026-04-27 04:49 -31.92870 115.96796 56 ft 3 kts 104°
2026-04-27 04:50 -31.92882 115.96823 56 ft 4 kts 134°
2026-04-27 04:50 -31.92913 115.96827 55 ft 7 kts 192°
2026-04-27 04:50 -31.93000 115.96802 53 ft 33 kts 194°
2026-04-27 04:50 -31.93444 115.96673 51 ft 98 kts 194°
2026-04-27 04:51 -31.94300 115.96429 55 ft 148 kts 193°
2026-04-27 04:51 -31.95403 115.96126 370 ft 165 kts 195°
2026-04-27 04:51 -31.96505 115.95801 1087 ft 165 kts 195°
2026-04-27 04:51 -31.97628 115.95464 1743 ft 167 kts 197°
2026-04-27 04:52 -31.98802 115.95115 2086 ft 185 kts 197°
2026-04-27 04:52 -32.00129 115.94723 2333 ft 207 kts 197°
2026-04-27 04:52 -32.01583 115.94182 2600 ft 230 kts 214°
2026-04-27 04:52 -32.02645 115.92756 2943 ft 244 kts 253°
2026-04-27 04:53 -32.02855 115.91195 3322 ft 252 kts 274°
2026-04-27 04:53 -32.02684 115.89300 4037 ft 254 kts 282°
2026-04-27 04:53 -32.02323 115.87273 4982 ft 253 kts 285°
2026-04-27 04:53 -32.01930 115.85235 5913 ft 253 kts 284°
2026-04-27 04:54 -32.01568 115.83243 6744 ft 254 kts 283°
2026-04-27 04:54 -32.01229 115.81172 7579 ft 256 kts 282°
2026-04-27 04:54 -32.01085 115.80223 7946 ft 257 kts 281°
2026-04-27 04:54 -32.00834 115.78502 8630 ft 259 kts 281°
2026-04-27 04:55 -32.00639 115.77093 9194 ft 260 kts 281°
2026-04-27 04:55 -32.00467 115.76100 9759 ft 252 kts 284°
2026-04-27 04:55 -32.00113 115.74034 10301 ft 267 kts 281°
2026-04-27 04:55 -31.99814 115.71758 10523 ft 291 kts 279°
2026-04-27 04:56 -31.99524 115.69296 10712 ft 314 kts 278°
2026-04-27 04:56 -31.99205 115.66749 11094 ft 327 kts 280°
2026-04-27 04:56 -31.98928 115.64937 11511 ft 330 kts 282°
2026-04-27 04:56 -31.98544 115.62697 11924 ft 338 kts 282°
2026-04-27 04:57 -31.98086 115.60201 12999 ft 324 kts 283°